sat.trackr.live / text

‹ back to catalog

STARLINK-3209

NORAD 49752 · 2021-115AE

PAYLOAD ACTIVE UNKNOWN

§ Identity

Operator
Country
US
Launch date
2021-12-02
Launch site
AFETR
Launch vehicle
Mass (kg)
RCS (m²)

Purposes: comms

External: N2YO · Heavens-Above · Gunter

§ Orbital elements

Epoch: 2026-09-19T22:04:17.652000Z

Period
93.85 min
Inclination
53.1612°
Eccentricity
0.0001292
Mean motion
15.34387646 rev/d
Perigee alt
461.9 km
Apogee alt
463.6 km
Semi-major
6,840.9 km
B*
2.4309e-5
RAAN
332.0972°
Arg perigee
84.5590°
Mean anomaly
275.5560°
Rev number
26,520

§ Raw data

STARLINK-32091 49752U 21115AE  26262.91964875  .00000445  00000+0  24309-4 0  99982 49752  53.1612 332.0972 0001292  84.5590 275.5560 15.34387646265200

JSON: /api/v1/satellites/49752 · /tle

For live sub-satellite position, see the globe view (requires WebGL).

§ Visibility from observer

Set your observer location to see the next 7 days of passes ≥ 10°. The values pass through the URL so the page stays shareable.

No JS? Fill the form by hand. The geolocation button needs JavaScript.